TimeCST,TemperatureF,Dew PointF,Humidity,Sea Level PressureIn,VisibilityMPH,Wind Direction,Wind SpeedMPH,Gust SpeedMPH,PrecipitationIn,Events,Conditions,WindDirDegrees,DateUTC
12:43 AM,39.2,37.4,93,30.34,9.0,ESE,4.6,-,N/A,,Mostly Cloudy,120,2012-11-30 06:43:00
12:53 AM,39.9,37.9,93,30.34,9.0,Calm,Calm,-,N/A,,Mostly Cloudy,0,2012-11-30 06:53:00
1:22 AM,41.0,37.4,87,30.34,9.0,Calm,Calm,-,N/A,,Scattered Clouds,0,2012-11-30 07:22:00
1:53 AM,39.0,37.0,93,30.35,8.0,Calm,Calm,-,N/A,,Partly Cloudy,0,2012-11-30 07:53:00
2:07 AM,39.2,37.4,93,30.34,9.0,Calm,Calm,-,N/A,,Mostly Cloudy,0,2012-11-30 08:07:00
2:17 AM,39.2,37.4,93,30.34,8.0,Calm,Calm,-,N/A,,Mostly Cloudy,0,2012-11-30 08:17:00
2:30 AM,41.0,39.2,93,30.34,9.0,Calm,Calm,-,N/A,,Mostly Cloudy,0,2012-11-30 08:30:00
2:53 AM,42.1,39.0,89,30.33,9.0,Calm,Calm,-,N/A,,Mostly Cloudy,0,2012-11-30 08:53:00
3:53 AM,46.0,41.0,83,30.32,10.0,Calm,Calm,-,N/A,,Mostly Cloudy,0,2012-11-30 09:53:00
4:53 AM,45.0,41.0,86,30.33,10.0,Calm,Calm,-,N/A,,Mostly Cloudy,0,2012-11-30 10:53:00
5:53 AM,44.1,39.9,85,30.34,9.0,Calm,Calm,-,N/A,,Partly Cloudy,0,2012-11-30 11:53:00
6:53 AM,44.1,39.9,85,30.35,9.0,Calm,Calm,-,N/A,,Partly Cloudy,0,2012-11-30 12:53:00
7:53 AM,48.9,45.0,86,30.36,8.0,Calm,Calm,-,N/A,,Partly Cloudy,0,2012-11-30 13:53:00
8:53 AM,53.1,46.0,77,30.37,10.0,Calm,Calm,-,N/A,,Mostly Cloudy,0,2012-11-30 14:53:00
9:53 AM,55.9,48.0,75,30.37,10.0,South,3.5,-,N/A,,Mostly Cloudy,180,2012-11-30 15:53:00
10:53 AM,59.0,48.0,67,30.35,10.0,WSW,3.5,-,N/A,,Mostly Cloudy,250,2012-11-30 16:53:00
11:53 AM,61.0,48.0,62,30.32,10.0,Calm,Calm,-,N/A,,Mostly Cloudy,0,2012-11-30 17:53:00
12:53 PM,63.0,48.0,58,30.29,10.0,Calm,Calm,-,N/A,,Scattered Clouds,0,2012-11-30 18:53:00
1:53 PM,64.0,48.0,56,30.27,10.0,Calm,Calm,-,N/A,,Mostly Cloudy,0,2012-11-30 19:53:00
2:53 PM,63.0,48.0,58,30.25,10.0,SSW,6.9,-,N/A,,Scattered Clouds,200,2012-11-30 20:53:00
3:53 PM,63.0,48.0,58,30.25,10.0,SE,5.8,-,N/A,,Partly Cloudy,140,2012-11-30 21:53:00
4:53 PM,61.0,48.0,62,30.26,10.0,Calm,Calm,-,N/A,,Clear,0,2012-11-30 22:53:00
5:53 PM,54.0,46.9,77,30.27,10.0,Calm,Calm,-,N/A,,Clear,0,2012-11-30 23:53:00
6:53 PM,51.1,46.9,86,30.28,10.0,Calm,Calm,-,N/A,,Clear,0,2012-12-01 00:53:00
7:53 PM,48.9,46.0,90,30.28,9.0,Calm,Calm,-,N/A,,Clear,0,2012-12-01 01:53:00
8:53 PM,48.9,46.0,90,30.28,9.0,Calm,Calm,-,N/A,,Clear,0,2012-12-01 02:53:00
9:53 PM,48.0,46.0,93,30.28,8.0,Calm,Calm,-,N/A,,Clear,0,2012-12-01 03:53:00
10:53 PM,46.9,45.0,93,30.28,9.0,Calm,Calm,-,N/A,,Clear,0,2012-12-01 04:53:00
11:53 PM,46.9,45.0,93,30.28,9.0,Calm,Calm,-,N/A,,Clear,0,2012-12-01 05:53:00